^^
Saratoga-Weather Station Historical Data
Daily Summary for August 17, 2020 Units:  English    Metric   Both
Daily Weekly Monthly Yearly Custom
  High: Low: Average:
Temperature: 76.1 °F 46.9 °F 61.3 °F
Dew Point: 54.1 °F 44.8 °F 48.9 °F
Humidity: 94% 38% 67%
Wind Speed: 6mph 0mph 0.8mph
Wind Gust: 8mph - -
Wind- - ESE
Pressure: 30 in 29.9 in -
Precipitation: 0 in    
Historical Graphs
 
 
Tabular Data for August 17, 2020
Time Temperature Dew Point Pressure Wind Wind Speed Wind Gust Humidity Rainfall Rate (Hourly) solar
00:02 58.3 °F 47.8 °F 30 in Calm     68% 0 in 0 W/m2
00:07 57.7 °F 47.7 °F 30 in South 0.9 mph 1 mph 69% 0 in 0 W/m2
00:13 57.2 °F 47.5 °F 30 in Calm   1 mph 70% 0 in 0 W/m2
00:18 56.8 °F 47.1 °F 30 in Calm     70% 0 in 0 W/m2
00:23 56.5 °F 47.1 °F 30 in Calm     71% 0 in 0 W/m2
00:28 56.1 °F 47.3 °F 30 in Calm     72% 0 in 0 W/m2
00:33 55.8 °F 47.3 °F 30 in Calm   1 mph 73% 0 in 0 W/m2
00:38 55.6 °F 47.5 °F 30 in South 0.9 mph 1 mph 74% 0 in 0 W/m2
00:43 55.2 °F 47.1 °F 30 in Calm   1 mph 74% 0 in 0 W/m2
00:48 55 °F 47.3 °F 30 in Calm     75% 0 in 0 W/m2
00:53 54.9 °F 47.5 °F 30 in Calm   1 mph 76% 0 in 0 W/m2
00:58 54.5 °F 47.1 °F 30 in Calm     76% 0 in 0 W/m2
01:03 54.1 °F 47.1 °F 30 in Calm     77% 0 in 0 W/m2
01:08 54.1 °F 47.1 °F 30 in Calm     77% 0 in 0 W/m2
01:13 54 °F 47.3 °F 30 in Calm     78% 0 in 0 W/m2
01:18 53.6 °F 46.9 °F 30 in Calm     78% 0 in 0 W/m2
01:23 53.4 °F 47.1 °F 30 in Calm     79% 0 in 0 W/m2
01:28 53.2 °F 46.9 °F 30 in Calm     79% 0 in 0 W/m2
01:33 53.2 °F 47.3 °F 30 in Calm     80% 0 in 0 W/m2
01:38 53.1 °F 47.1 °F 30 in Calm     80% 0 in 0 W/m2
01:43 53.1 °F 47.1 °F 30 in Calm     80% 0 in 0 W/m2
01:48 53.1 °F 47.1 °F 30 in NW 2 mph 2 mph 80% 0 in 0 W/m2
01:53 53.1 °F 47.1 °F 30 in Calm     80% 0 in 0 W/m2
01:58 53.1 °F 47.1 °F 30 in Calm     80% 0 in 0 W/m2
02:03 52.9 °F 46.9 °F 30 in Calm     80% 0 in 0 W/m2
02:08 52.9 °F 46.9 °F 30 in Calm     80% 0 in 0 W/m2
02:13 52.7 °F 46.8 °F 30 in Calm     80% 0 in 0 W/m2
02:18 52.5 °F 46.9 °F 30 in Calm   1 mph 81% 0 in 0 W/m2
02:23 52.3 °F 46.8 °F 30 in Calm     81% 0 in 0 W/m2
02:28 52.2 °F 46.6 °F 30 in Calm     81% 0 in 0 W/m2
02:33 52.2 °F 46.8 °F 30 in Calm     82% 0 in 0 W/m2
02:38 52.2 °F 46.8 °F 30 in Calm     82% 0 in 0 W/m2
02:43 52 °F 46.6 °F 30 in Calm     82% 0 in 0 W/m2
02:48 52 °F 46.6 °F 30 in Calm     82% 0 in 0 W/m2
02:53 51.6 °F 46.2 °F 30 in Calm     82% 0 in 0 W/m2
02:58 51.4 °F 46.4 °F 30 in Calm     83% 0 in 0 W/m2
03:03 51.3 °F 46.2 °F 30 in Calm     83% 0 in 0 W/m2
03:08 51.3 °F 46.2 °F 30 in Calm     83% 0 in 0 W/m2
03:13 50.9 °F 46.2 °F 30 in Calm     84% 0 in 0 W/m2
03:18 50.7 °F 46 °F 30 in Calm     84% 0 in 0 W/m2
03:23 50.5 °F 46.2 °F 30 in Calm     85% 0 in 0 W/m2
03:28 50.5 °F 46.2 °F 30 in Calm     85% 0 in 0 W/m2
03:33 50.4 °F 46 °F 30 in Calm     85% 0 in 0 W/m2
03:38 50.2 °F 46.2 °F 30 in Calm   1 mph 86% 0 in 0 W/m2
03:44 50.2 °F 46.2 °F 30 in Calm     86% 0 in 0 W/m2
03:49 50 °F 46 °F 30 in Calm     86% 0 in 0 W/m2
03:54 49.8 °F 45.9 °F 30 in Calm     86% 0 in 0 W/m2
03:59 49.6 °F 45.7 °F 30 in Calm     86% 0 in 0 W/m2
04:04 49.5 °F 45.5 °F 30 in Calm     86% 0 in 0 W/m2
04:09 49.5 °F 45.7 °F 30 in Calm     87% 0 in 0 W/m2
04:14 49.3 °F 45.9 °F 30 in Calm     88% 0 in 0 W/m2
04:19 49.3 °F 45.9 °F 30 in Calm     88% 0 in 0 W/m2
04:24 49.3 °F 45.9 °F 30 in Calm     88% 0 in 0 W/m2
04:29 48.9 °F 45.5 °F 30 in Calm     88% 0 in 0 W/m2
04:34 48.9 °F 45.5 °F 30 in Calm     88% 0 in 0 W/m2
04:39 48.7 °F 45.3 °F 30 in Calm     88% 0 in 0 W/m2
04:44 48.7 °F 45.7 °F 30 in Calm     89% 0 in 0 W/m2
04:49 48.6 °F 45.5 °F 30 in Calm     89% 0 in 0 W/m2
04:54 48.6 °F 45.5 °F 30 in Calm     89% 0 in 0 W/m2
04:59 48.6 °F 45.5 °F 30 in Calm     89% 0 in 0 W/m2
05:04 48.4 °F 45.3 °F 30 in Calm     89% 0 in 0 W/m2
05:09 48.4 °F 45.5 °F 30 in Calm     90% 0 in 0 W/m2
05:14 48.4 °F 45.5 °F 30 in Calm     90% 0 in 0 W/m2
05:19 48.2 °F 45.3 °F 30 in Calm     90% 0 in 0 W/m2
05:24 48 °F 45.1 °F 30 in Calm     90% 0 in 0 W/m2
05:29 48 °F 45.1 °F 30 in Calm     90% 0 in 0 W/m2
05:35 47.8 °F 45.3 °F 30 in Calm     91% 0 in 0 W/m2
05:40 47.8 °F 45.3 °F 30 in Calm     91% 0 in 0 W/m2
05:45 48 °F 45.5 °F 30 in Calm     91% 0 in 0 W/m2
05:50 47.8 °F 45.3 °F 30 in Calm     91% 0 in 0 W/m2
05:55 47.7 °F 45.1 °F 30 in Calm     91% 0 in 0 W/m2
06:00 47.7 °F 45.1 °F 30 in Calm     91% 0 in 0 W/m2
06:05 47.5 °F 45 °F 30 in Calm     91% 0 in 0 W/m2
06:10 47.5 °F 45 °F 30 in Calm     91% 0 in 0 W/m2
06:15 47.3 °F 44.8 °F 30 in Calm     91% 0 in 0 W/m2
06:20 47.3 °F 45.1 °F 30 in Calm     92% 0 in 0 W/m2
06:25 47.3 °F 45.1 °F 30 in Calm     92% 0 in 0 W/m2
06:30 47.1 °F 45 °F 30 in Calm     92% 0 in 0 W/m2
06:35 47.1 °F 45 °F 30 in Calm     92% 0 in 0 W/m2
06:40 46.9 °F 44.8 °F 30 in Calm     92% 0 in 5 W/m2
06:45 46.9 °F 44.8 °F 30 in Calm     92% 0 in 7 W/m2
06:50 46.9 °F 44.8 °F 30 in Calm     92% 0 in 11 W/m2
06:55 46.9 °F 45 °F 30 in NW 0.9 mph 1 mph 93% 0 in 16 W/m2
07:00 46.9 °F 45 °F 30 in Calm     93% 0 in 19 W/m2
07:05 46.9 °F 45 °F 30 in Calm     93% 0 in 23 W/m2
07:10 46.9 °F 45 °F 30 in Calm     93% 0 in 25 W/m2
07:15 46.9 °F 45 °F 30 in Calm     93% 0 in 26 W/m2
07:20 46.9 °F 45 °F 30 in Calm     93% 0 in 28 W/m2
07:25 47.1 °F 45.1 °F 30 in Calm     93% 0 in 28 W/m2
07:30 47.3 °F 45.3 °F 30 in Calm     93% 0 in 26 W/m2
07:35 47.5 °F 45.5 °F 30 in Calm     93% 0 in 25 W/m2
07:40 47.5 °F 45.5 °F 30 in Calm     93% 0 in 25 W/m2
07:45 47.7 °F 45.7 °F 30 in Calm     93% 0 in 35 W/m2
07:50 47.8 °F 46.2 °F 30 in Calm     94% 0 in 56 W/m2
07:56 48 °F 46.4 °F 30 in Calm     94% 0 in 84 W/m2
08:01 48.4 °F 46.8 °F 30 in Calm     94% 0 in 139 W/m2
08:06 48.7 °F 47.1 °F 30 in Calm     94% 0 in 151 W/m2
08:11 49.3 °F 47.7 °F 30 in Calm     94% 0 in 162 W/m2
08:16 49.8 °F 48.2 °F 30 in Calm     94% 0 in 174 W/m2
08:21 50.5 °F 48.6 °F 30 in Calm     93% 0 in 186 W/m2
08:26 51.3 °F 49.1 °F 30 in Calm     92% 0 in 200 W/m2
08:31 52 °F 49.5 °F 30 in Calm     91% 0 in 213 W/m2
08:36 52.7 °F 49.3 °F 30 in Calm     88% 0 in 225 W/m2
08:41 53.1 °F 48.9 °F 30 in Calm     86% 0 in 237 W/m2
08:46 53.6 °F 49.3 °F 30 in Calm     85% 0 in 253 W/m2
08:51 54 °F 48.9 °F 30 in Calm     83% 0 in 265 W/m2
08:56 54.3 °F 48.9 °F 30 in Calm     82% 0 in 279 W/m2
09:01 54.7 °F 48.9 °F 30 in East 2 mph 2 mph 81% 0 in 295 W/m2
09:06 54.7 °F 48.6 °F 30 in Calm   3 mph 80% 0 in 308 W/m2
09:11 54.9 °F 48.7 °F 30 in Calm   1 mph 80% 0 in 322 W/m2
09:16 55.2 °F 48.7 °F 30 in ENE 0.9 mph 3 mph 79% 0 in 334 W/m2
09:21 55.8 °F 49.3 °F 30 in Calm   1 mph 79% 0 in 346 W/m2
09:26 56.1 °F 49.3 °F 30 in Calm   1 mph 78% 0 in 360 W/m2
09:32 56.7 °F 49.5 °F 30 in Calm   2 mph 77% 0 in 373 W/m2
09:37 56.8 °F 49.3 °F 30 in ESE 0.9 mph 2 mph 76% 0 in 387 W/m2
09:42 57.2 °F 49.3 °F 30 in Calm   2 mph 75% 0 in 397 W/m2
09:47 57.7 °F 49.5 °F 30 in Calm   2 mph 74% 0 in 63 W/m2
09:52 58.5 °F 50.2 °F 30 in Calm   1 mph 74% 0 in 206 W/m2
09:57 59.4 °F 50.4 °F 30 in ESE 2.9 mph 3 mph 72% 0 in 431 W/m2
10:02 60.1 °F 50.2 °F 30 in NE 2 mph 4 mph 70% 0 in 445 W/m2
10:07 60.4 °F 50.2 °F 30 in East 2 mph 3 mph 69% 0 in 454 W/m2
10:12 61 °F 50.4 °F 30 in Calm   1 mph 68% 0 in 457 W/m2
10:17 61.3 °F 51.1 °F 30 in NE 4 mph 5 mph 69% 0 in 478 W/m2
10:22 61.5 °F 50.5 °F 30 in ENE 2 mph 2 mph 67% 0 in 485 W/m2
10:27 62.1 °F 50.9 °F 30 in NNE 0.9 mph 4 mph 67% 0 in 497 W/m2
10:32 62.2 °F 50.7 °F 30 in ESE 2.9 mph 5 mph 66% 0 in 506 W/m2
10:37 63 °F 51.4 °F 30 in ESE 2.9 mph 3 mph 66% 0 in 515 W/m2
10:42 63.5 °F 51.4 °F 30 in East 4 mph 5 mph 65% 0 in 526 W/m2
10:47 64 °F 52 °F 30 in ENE 2 mph 3 mph 65% 0 in 534 W/m2
10:52 64.2 °F 51.8 °F 30 in East 2 mph 4 mph 64% 0 in 548 W/m2
10:57 64.8 °F 51.8 °F 30 in East 2 mph 3 mph 63% 0 in 555 W/m2
11:02 64.9 °F 51.6 °F 30 in ESE 2.9 mph 3 mph 62% 0 in 568 W/m2
11:07 65.1 °F 51.3 °F 30 in ENE 2 mph 4 mph 61% 0 in 578 W/m2
11:12 65.7 °F 52.3 °F 30 in ENE 2.9 mph 6 mph 62% 0 in 584 W/m2
11:17 66 °F 52.2 °F 30 in NNE 0.9 mph 6 mph 61% 0 in 594 W/m2
11:22 66 °F 52.2 °F 30 in ENE 0.9 mph 3 mph 61% 0 in 601 W/m2
11:27 66.6 °F 52.2 °F 30 in East 2.9 mph 6 mph 60% 0 in 594 W/m2
11:32 66.9 °F 52.5 °F 30 in ESE 2.9 mph 3 mph 60% 0 in 615 W/m2
11:37 67.3 °F 52 °F 30 in ESE 2 mph 6 mph 58% 0 in 601 W/m2
11:42 67.3 °F 52 °F 30 in ESE 2 mph 3 mph 58% 0 in 633 W/m2
11:47 67.3 °F 51.1 °F 30 in SE 2 mph 4 mph 56% 0 in 635 W/m2
11:52 67.3 °F 51.4 °F 30 in ESE 4 mph 4 mph 57% 0 in 643 W/m2
11:57 67.5 °F 52.2 °F 30 in East 2 mph 3 mph 58% 0 in 650 W/m2
12:02 68.2 °F 51.8 °F 30 in NNE 0.9 mph 7 mph 56% 0 in 654 W/m2
12:07 68.2 °F 52.9 °F 30 in Calm   3 mph 58% 0 in 659 W/m2
12:12 68.4 °F 52 °F 30 in ENE 0.9 mph 7 mph 56% 0 in 670 W/m2
12:17 68.5 °F 51.8 °F 30 in East 2 mph 5 mph 55% 0 in 670 W/m2
12:22 68.7 °F 52.3 °F 30 in ENE 0.9 mph 3 mph 56% 0 in 673 W/m2
12:27 69.4 °F 52.2 °F 30 in East 0.9 mph 3 mph 54% 0 in 679 W/m2
12:33 69.6 °F 51.8 °F 30 in ESE 2.9 mph 6 mph 53% 0 in 679 W/m2
12:38 69.4 °F 52.2 °F 30 in NE 0.9 mph 2 mph 54% 0 in 682 W/m2
12:43 69.8 °F 52.3 °F 29.9 in ENE 4 mph 7 mph 54% 0 in 687 W/m2
12:48 70 °F 52.5 °F 29.9 in East 4 mph 4 mph 54% 0 in 693 W/m2
12:53 70.2 °F 53.2 °F 29.9 in ESE 2 mph 4 mph 55% 0 in 691 W/m2
12:58 70.3 °F 51.8 °F 29.9 in NE 2 mph 7 mph 52% 0 in 694 W/m2
13:03 70.5 °F 52.5 °F 29.9 in East 2.9 mph 4 mph 53% 0 in 696 W/m2
13:08 70.7 °F 52.2 °F 29.9 in ENE 2 mph 2 mph 52% 0 in 696 W/m2
13:13 70.5 °F 51.4 °F 29.9 in Calm   2 mph 51% 0 in 700 W/m2
13:18 70.9 °F 51.3 °F 29.9 in East 0.9 mph 8 mph 50% 0 in 701 W/m2
13:23 71.1 °F 52 °F 29.9 in ENE 4 mph 4 mph 51% 0 in 701 W/m2
13:28 71.2 °F 51.6 °F 29.9 in SE 2 mph 8 mph 50% 0 in 703 W/m2
13:33 71.6 °F 52 °F 29.9 in East 0.9 mph 2 mph 50% 0 in 703 W/m2
13:38 72.1 °F 52 °F 29.9 in ESE 4 mph 7 mph 49% 0 in 703 W/m2
13:43 72.5 °F 51.6 °F 29.9 in ENE 4.9 mph 8 mph 48% 0 in 700 W/m2
13:48 72.7 °F 51.3 °F 29.9 in East 2.9 mph 4 mph 47% 0 in 701 W/m2
13:53 73 °F 51.6 °F 29.9 in NE 2 mph 3 mph 47% 0 in 698 W/m2
13:58 73 °F 51.6 °F 29.9 in ESE 2.9 mph 4 mph 47% 0 in 694 W/m2
14:03 73 °F 51.1 °F 29.9 in ENE 2 mph 2 mph 46% 0 in 691 W/m2
14:08 73.4 °F 52 °F 29.9 in NW 0.9 mph 3 mph 47% 0 in 686 W/m2
14:13 73.8 °F 51.6 °F 29.9 in NE 2.9 mph 4 mph 46% 0 in 682 W/m2
14:18 73.8 °F 51.6 °F 29.9 in SE 2.9 mph 6 mph 46% 0 in 686 W/m2
14:23 74.1 °F 52.5 °F 29.9 in ESE 2.9 mph 6 mph 47% 0 in 680 W/m2
14:28 74.1 °F 51.4 °F 29.9 in Calm   3 mph 45% 0 in 673 W/m2
14:33 74.1 °F 52 °F 29.9 in East 2 mph 3 mph 46% 0 in 675 W/m2
14:38 74.5 °F 52.9 °F 29.9 in NE 2 mph 6 mph 47% 0 in 668 W/m2
14:43 74.8 °F 53.8 °F 29.9 in ENE 2.9 mph 4 mph 48% 0 in 670 W/m2
14:48 75 °F 52.2 °F 29.9 in ENE 4 mph 7 mph 45% 0 in 666 W/m2
14:53 74.8 °F 52.2 °F 29.9 in NNW 2 mph 8 mph 45% 0 in 659 W/m2
14:58 75.2 °F 53.6 °F 29.9 in ESE 2 mph 5 mph 47% 0 in 659 W/m2
15:03 75.4 °F 52.5 °F 29.9 in NE 2 mph 7 mph 45% 0 in 661 W/m2
15:08 75.4 °F 53.2 °F 29.9 in SE 2.9 mph 8 mph 46% 0 in 650 W/m2
15:13 75.4 °F 52.5 °F 29.9 in ESE 2 mph 3 mph 45% 0 in 155 W/m2
15:18 75 °F 52.2 °F 29.9 in ENE 2.9 mph 7 mph 45% 0 in 155 W/m2
15:23 74.7 °F 53.1 °F 29.9 in ENE 4.9 mph 6 mph 47% 0 in 677 W/m2
15:28 74.5 °F 52.3 °F 29.9 in ESE 0.9 mph 6 mph 46% 0 in 679 W/m2
15:33 74.8 °F 52.7 °F 29.9 in ENE 2 mph 4 mph 46% 0 in 677 W/m2
15:38 75 °F 52.9 °F 29.9 in East 4 mph 5 mph 46% 0 in 679 W/m2
15:43 75.6 °F 52.2 °F 29.9 in ENE 0.9 mph 2 mph 44% 0 in 661 W/m2
15:48 75.7 °F 51.6 °F 29.9 in East 2 mph 4 mph 43% 0 in 144 W/m2
15:53 75.6 °F 51.4 °F 29.9 in East 2 mph 3 mph 43% 0 in 100 W/m2
15:58 75 °F 51.1 °F 29.9 in Calm   2 mph 43% 0 in 135 W/m2
16:03 74.7 °F 51.3 °F 29.9 in SSE 2 mph 5 mph 44% 0 in 288 W/m2
16:08 74.5 °F 51.1 °F 29.9 in ENE 2 mph 8 mph 44% 0 in 116 W/m2
16:13 74.1 °F 52.5 °F 29.9 in East 6 mph 6 mph 47% 0 in 134 W/m2
16:18 73.8 °F 51.6 °F 29.9 in East 2 mph 2 mph 46% 0 in 155 W/m2
16:23 73.8 °F 51.1 °F 29.9 in SE 0.9 mph 3 mph 45% 0 in 172 W/m2
16:28 73.8 °F 51.1 °F 29.9 in ESE 2 mph 4 mph 45% 0 in 181 W/m2
16:33 73.9 °F 50.7 °F 29.9 in East 2.9 mph 4 mph 44% 0 in 504 W/m2
16:38 74.5 °F 50.5 °F 29.9 in ESE 2 mph 3 mph 43% 0 in 492 W/m2
16:43 74.8 °F 50.2 °F 29.9 in SE 0.9 mph 4 mph 42% 0 in 438 W/m2
16:49 75.4 °F 51.3 °F 29.9 in ESE 0.9 mph 1 mph 43% 0 in 461 W/m2
16:54 75.6 °F 51.4 °F 29.9 in ENE 2.9 mph 4 mph 43% 0 in 466 W/m2
16:59 75.6 °F 50.9 °F 29.9 in ENE 2 mph 4 mph 42% 0 in 450 W/m2
17:04 75 °F 50.4 °F 29.9 in East 4 mph 5 mph 42% 0 in 299 W/m2
17:09 74.7 °F 50 °F 29.9 in WNW 2 mph 3 mph 42% 0 in 278 W/m2
17:14 74.7 °F 50 °F 29.9 in Calm   1 mph 42% 0 in 227 W/m2
17:19 74.8 °F 50.2 °F 29.9 in West 2 mph 2 mph 42% 0 in 355 W/m2
17:24 75 °F 50.4 °F 29.9 in West 2.9 mph 4 mph 42% 0 in 348 W/m2
17:29 75.2 °F 49.8 °F 29.9 in ESE 0.9 mph 2 mph 41% 0 in 355 W/m2
17:34 75.6 °F 51.4 °F 29.9 in SE 0.9 mph 2 mph 43% 0 in 302 W/m2
17:39 76.1 °F 50 °F 29.9 in Calm   1 mph 40% 0 in 239 W/m2
17:44 75.9 °F 48.6 °F 29.9 in Calm   1 mph 38% 0 in 294 W/m2
17:49 75.9 °F 50.5 °F 29.9 in ESE 6 mph 6 mph 41% 0 in 227 W/m2
17:54 75.7 °F 51.6 °F 29.9 in Calm   1 mph 43% 0 in 236 W/m2
17:59 75.6 °F 48.9 °F 29.9 in ENE 0.9 mph 4 mph 39% 0 in 209 W/m2
18:04 75.4 °F 48.7 °F 29.9 in East 0.9 mph 2 mph 39% 0 in 221 W/m2
18:09 75 °F 49.1 °F 29.9 in ESE 0.9 mph 3 mph 40% 0 in 227 W/m2
18:14 75 °F 49.6 °F 29.9 in East 0.9 mph 2 mph 41% 0 in 237 W/m2
18:19 75 °F 50.4 °F 29.9 in SE 0.9 mph 3 mph 42% 0 in 221 W/m2
18:24 75 °F 50.4 °F 29.9 in Calm   2 mph 42% 0 in 185 W/m2
18:29 75 °F 49.6 °F 29.9 in Calm   1 mph 41% 0 in 181 W/m2
18:34 75 °F 49.1 °F 29.9 in Calm   3 mph 40% 0 in 190 W/m2
18:39 74.8 °F 50.2 °F 29.9 in Calm   1 mph 42% 0 in 132 W/m2
18:44 74.7 °F 50 °F 29.9 in SE 4 mph 4 mph 42% 0 in 146 W/m2
18:49 74.5 °F 49.3 °F 29.9 in East 0.9 mph 1 mph 41% 0 in 123 W/m2
18:54 74.1 °F 50.9 °F 29.9 in ESE 4 mph 4 mph 44% 0 in 109 W/m2
18:59 73.8 °F 50.5 °F 29.9 in Calm   1 mph 44% 0 in 98 W/m2
19:04 73.6 °F 51.4 °F 29.9 in ESE 0.9 mph 2 mph 46% 0 in 102 W/m2
19:09 72.9 °F 52 °F 29.9 in ESE 0.9 mph 1 mph 48% 0 in 100 W/m2
19:14 72.3 °F 53.2 °F 29.9 in Calm   1 mph 51% 0 in 102 W/m2
19:19 72.1 °F 53.1 °F 29.9 in Calm     51% 0 in 128 W/m2
19:24 72.1 °F 53.1 °F 29.9 in Calm   1 mph 51% 0 in 132 W/m2
19:30 72.1 °F 53.1 °F 29.9 in Calm   2 mph 51% 0 in 111 W/m2
19:35 72 °F 51.8 °F 29.9 in Calm   1 mph 49% 0 in 95 W/m2
19:40 72 °F 53.4 °F 29.9 in Calm   1 mph 52% 0 in 79 W/m2
19:45 72.1 °F 54.1 °F 29.9 in Calm     53% 0 in 53 W/m2
19:50 72 °F 53.4 °F 29.9 in Calm   1 mph 52% 0 in 35 W/m2
19:55 71.6 °F 53.1 °F 29.9 in Calm     52% 0 in 26 W/m2
20:00 70.9 °F 52.3 °F 29.9 in Calm   1 mph 52% 0 in 21 W/m2
20:05 70 °F 52 °F 29.9 in Calm     53% 0 in 18 W/m2
20:10 69.4 °F 51.6 °F 29.9 in SE 0.9 mph 1 mph 53% 0 in 16 W/m2
20:15 68.5 °F 50.7 °F 29.9 in Calm   1 mph 53% 0 in 16 W/m2
20:20 67.6 °F 50.9 °F 29.9 in Calm     55% 0 in 12 W/m2
20:25 66.9 °F 50.7 °F 29.9 in Calm     56% 0 in 9 W/m2
20:30 66.2 °F 50.5 °F 29.9 in Calm     57% 0 in 5 W/m2
20:35 65.7 °F 50 °F 29.9 in SE 0.9 mph 1 mph 57% 0 in 5 W/m2
20:40 64.8 °F 50.2 °F 29.9 in Calm     59% 0 in 0 W/m2
20:45 64.2 °F 49.6 °F 29.9 in SE 0.9 mph 2 mph 59% 0 in 0 W/m2
20:50 63.7 °F 49.5 °F 29.9 in SSW 0.9 mph 2 mph 60% 0 in 0 W/m2
20:55 63.1 °F 49.1 °F 29.9 in WNW 0.9 mph 2 mph 60% 0 in 0 W/m2
21:00 62.8 °F 49.1 °F 29.9 in WNW 0.9 mph 2 mph 61% 0 in 0 W/m2
21:05 62.4 °F 48.7 °F 29.9 in WNW 0.9 mph 1 mph 61% 0 in 0 W/m2
21:10 62.1 °F 48.9 °F 29.9 in WNW 0.9 mph 2 mph 62% 0 in 0 W/m2
21:15 61.5 °F 48.4 °F 29.9 in Calm   1 mph 62% 0 in 0 W/m2
21:20 61.3 °F 48.6 °F 29.9 in Calm     63% 0 in 0 W/m2
21:25 61 °F 48.4 °F 29.9 in Calm     63% 0 in 0 W/m2
21:30 60.6 °F 48.4 °F 29.9 in Calm     64% 0 in 0 W/m2
21:35 60.4 °F 47.8 °F 29.9 in WNW 0.9 mph 1 mph 63% 0 in 0 W/m2
21:40 60.3 °F 48 °F 29.9 in Calm     64% 0 in 0 W/m2
21:45 60.3 °F 48.4 °F 29.9 in Calm     65% 0 in 0 W/m2
21:50 60.1 °F 48.2 °F 29.9 in Calm     65% 0 in 0 W/m2
21:55 59.7 °F 48 °F 29.9 in Calm     65% 0 in 0 W/m2
22:00 59.5 °F 48.2 °F 29.9 in Calm     66% 0 in 0 W/m2
22:05 59.4 °F 48 °F 29.9 in Calm     66% 0 in 0 W/m2
22:10 59.2 °F 47.8 °F 29.9 in WNW 0.9 mph 1 mph 66% 0 in 0 W/m2
22:15 58.8 °F 47.5 °F 29.9 in Calm     66% 0 in 0 W/m2
22:21 58.6 °F 47.3 °F 29.9 in Calm     66% 0 in 0 W/m2
22:26 58.6 °F 47.3 °F 29.9 in Calm     66% 0 in 0 W/m2
22:31 58.5 °F 47.5 °F 29.9 in Calm     67% 0 in 0 W/m2
22:36 58.3 °F 47.8 °F 29.9 in Calm   1 mph 68% 0 in 0 W/m2
22:41 57.9 °F 47.5 °F 29.9 in Calm     68% 0 in 0 W/m2
22:46 57.7 °F 47.7 °F 29.9 in Calm     69% 0 in 0 W/m2
22:51 57.6 °F 47.5 °F 29.9 in Calm     69% 0 in 0 W/m2
22:56 57.4 °F 47.7 °F 29.9 in Calm     70% 0 in 0 W/m2
23:01 57.2 °F 47.8 °F 29.9 in Calm     71% 0 in 0 W/m2
23:06 57 °F 47.7 °F 29.9 in Calm     71% 0 in 0 W/m2
23:11 56.8 °F 47.5 °F 29.9 in Calm     71% 0 in 0 W/m2
23:16 56.7 °F 47.3 °F 29.9 in Calm     71% 0 in 0 W/m2
23:21 56.7 °F 47.3 °F 29.9 in Calm     71% 0 in 0 W/m2
23:26 56.7 °F 47.3 °F 29.9 in Calm     71% 0 in 0 W/m2
23:31 56.5 °F 47.5 °F 29.9 in Calm     72% 0 in 0 W/m2
23:36 56.3 °F 47.5 °F 29.9 in Calm     72% 0 in 0 W/m2
23:41 56.1 °F 47.7 °F 29.9 in Calm     73% 0 in 0 W/m2
23:46 55.9 °F 47.5 °F 29.9 in Calm     73% 0 in 0 W/m2
23:51 55.8 °F 47.3 °F 29.9 in Calm     73% 0 in 0 W/m2
23:56 55.8 °F 47.7 °F 29.9 in Calm     74% 0 in 0 W/m2
Juneau County Weather
Compliments of Weather Underground - 2 mb